Date,TemperatureHighF,TemperatureAvgF,TemperatureLowF,DewpointHighF,DewpointAvgF,DewpointLowF,HumidityHigh,HumidityAvg,HumidityLow,PressureMaxIn,PressureMinIn,WindSpeedMaxMPH,WindSpeedAvgMPH,GustSpeedMaxMPH,PrecipitationSumIn
2013-4-1,77.7,68.4,59.4,57.9,54.7,49.4,81,63,41,29.94,29.84,13,6,20,0.00
2013-4-2,79.5,68.7,59.4,58.8,55.8,52.2,79,65,42,29.98,29.87,15,8,20,0.00
2013-4-3,81.1,71.0,61.7,60.2,56.9,51.8,82,63,43,30.00,29.89,14,8,17,0.00
2013-4-4,82.8,72.3,61.3,62.1,55.7,50.8,77,58,37,30.00,29.89,11,8,14,0.00
2013-4-5,87.3,73.3,65.3,66.6,62.1,57.2,81,69,48,30.03,29.92,15,7,24,0.00
2013-4-6,84.2,74.1,63.9,67.7,63.1,56.8,91,69,55,30.06,29.94,11,5,14,0.00
2013-4-7,81.9,74.5,67.5,69.7,64.7,59.8,84,72,59,30.07,29.96,12,6,24,0.00
2013-4-8,85.6,73.9,65.1,67.4,61.9,56.3,88,67,42,30.01,29.89,15,6,21,0.00
2013-4-9,84.9,74.1,65.8,68.4,64.3,55.8,88,72,52,29.99,29.85,14,7,18,0.05
2013-4-10,84.7,74.9,63.0,68.6,64.2,57.7,88,71,50,29.98,29.86,10,6,17,0.00
2013-4-11,83.1,75.1,68.7,69.1,65.8,61.6,91,74,54,29.95,29.85,11,5,17,0.01
2013-4-12,80.6,73.8,64.9,68.6,64.7,57.3,86,74,63,29.91,29.82,12,5,17,0.00
2013-4-13,92.5,75.2,67.5,69.4,63.9,52.0,86,70,27,29.91,29.75,15,6,24,0.00
2013-4-14,82.9,74.0,65.1,69.3,64.2,57.9,90,72,50,29.91,29.80,11,6,17,0.00
2013-4-15,82.9,74.5,64.2,67.8,63.8,59.3,87,70,53,29.97,29.86,11,5,17,0.00
2013-4-16,80.8,73.6,66.7,70.5,65.9,55.5,93,77,62,30.02,29.91,12,6,17,0.00
2013-4-17,87.8,75.3,66.9,67.9,61.8,54.0,81,65,32,30.03,29.93,19,10,27,0.00
2013-4-18,86.7,73.5,66.9,69.6,63.2,58.7,92,71,43,30.03,29.94,16,11,28,0.11
2013-4-19,82.8,73.0,64.6,68.9,62.6,54.8,79,70,47,30.01,29.92,15,8,22,0.00
2013-4-20,81.7,73.4,66.0,68.9,64.8,59.0,88,75,58,30.00,29.93,11,7,19,0.00
2013-4-21,83.7,73.6,63.9,68.1,64.4,59.3,90,74,46,29.98,29.89,11,5,15,0.00
2013-4-22,84.2,74.0,64.0,68.7,64.5,58.8,88,73,52,29.98,29.89,12,6,17,0.00
2013-4-23,84.2,75.6,65.8,69.5,65.5,60.9,92,73,49,30.00,29.91,12,6,17,0.00
2013-4-24,87.3,76.1,65.7,69.2,66.3,58.8,95,73,50,29.99,29.89,14,6,21,0.00
2013-4-25,87.8,75.4,67.1,68.5,62.5,58.0,77,65,44,29.98,29.88,20,10,28,0.00
2013-4-26,86.9,75.2,68.2,63.3,61.2,58.6,78,63,40,29.95,29.87,20,12,34,0.00
2013-4-27,85.6,75.0,66.2,65.2,61.6,55.5,78,64,47,29.97,29.86,12,7,18,0.00
2013-4-28,82.9,74.8,66.4,66.6,62.5,56.8,80,66,52,29.96,29.85,12,6,16,0.00
2013-4-29,82.9,74.8,68.0,69.3,65.7,60.8,91,74,58,29.92,29.83,13,6,17,0.00
2013-4-30,85.8,75.5,64.8,68.2,63.2,55.9,79,66,49,29.95,29.85,12,7,21,0.00